Total_Precipitation_Accumulation
0.30 0.28 0.24 0.22 0.21 0.20 0.20 0.24 0.29 0.32 0.34 0.42 0.53 0.62 0.72 0.90 1.11 1.17 1.22 1.36 1.39 1.42 1.55 1.66 1.69 1.62 1.53 1.58 1.75 2.10 1.98 1.62 1.46 1.49 1.37 1.21 1.15 1.19 1.15 1.18 1.26 1.20 1.17
0.23 0.20 0.18 0.17 0.15 0.12 0.13 0.18 0.27 0.36 0.42 0.48 0.62 0.77 1.00 1.11 1.26 1.41 1.39 1.42 1.47 1.51 1.59 1.80 1.91 1.84 1.81 1.92 1.94 2.16 2.29 2.03 1.81 1.80 1.97 1.75 1.55 1.23 1.00 1.05 1.11 1.13 1.21
0.19 0.14 0.13 0.14 0.13 0.10 0.11 0.18 0.32 0.51 0.72 0.82 1.05 1.33 1.58 1.66 1.59 1.58 1.62 1.61 1.64 1.70 1.68 1.80 2.01 1.97 1.92 1.96 2.14 2.42 2.68 2.58 2.33 2.13 2.24 1.99 1.76 1.64 1.16 0.94 1.00 1.08 1.20
0.25 0.18 0.17 0.16 0.15 0.15 0.23 0.38 0.62 0.92 1.17 1.32 1.52 1.72 1.84 1.88 1.81 1.82 1.80 1.78 1.70 1.64 1.63 1.75 1.96 2.10 2.17 2.22 2.28 2.29 2.62 2.81 2.64 2.52 2.22 1.95 1.81 1.91 1.67 1.20 0.98 1.03 1.08
0.28 0.28 0.30 0.29 0.34 0.44 0.62 0.90 1.15 1.39 1.53 1.59 1.68 1.88 2.04 2.19 2.21 2.09 1.94 1.83 1.80 1.73 1.64 1.68 1.76 1.81 1.88 2.00 2.13 2.21 2.42 2.56 2.69 2.67 2.48 2.25 2.09 1.67 1.65 1.65 1.40 1.15 0.95
0.36 0.44 0.55 0.66 0.78 0.87 1.04 1.25 1.39 1.53 1.53 1.53 1.58 1.71 1.90 2.07 2.09 2.10 2.07 1.94 1.81 1.71 1.62 1.56 1.65 1.68 1.69 1.81 1.93 2.03 2.25 2.42 2.53 2.59 2.48 2.35 2.28 2.03 1.79 1.61 1.58 1.47 1.17
0.47 0.66 0.80 0.93 1.05 1.15 1.24 1.27 1.26 1.30 1.31 1.33 1.37 1.44 1.50 1.54 1.60 1.71 1.63 1.50 1.38 1.33 1.33 1.25 1.31 1.45 1.50 1.68 1.75 1.69 1.74 1.91 2.11 2.29 2.32 2.29 2.19 2.17 2.09 1.93 1.77 1.57 1.24
0.73 0.84 0.94 1.03 1.07 1.20 1.25 1.19 1.16 1.14 1.07 1.01 1.06 1.08 1.12 1.17 1.20 1.22 1.18 1.10 1.05 1.02 0.98 0.98 1.00 1.07 1.15 1.37 1.57 1.54 1.56 1.63 1.71 1.81 2.06 2.15 2.11 2.14 1.98 1.85 1.88 1.68 1.42
0.99 1.15 1.14 1.04 0.96 1.00 1.07 1.05 1.00 0.94 0.86 0.80 0.83 0.86 0.92 0.95 0.93 0.91 0.86 0.84 0.78 0.79 0.76 0.79 0.88 0.93 0.93 1.03 1.16 1.34 1.42 1.48 1.56 1.58 1.74 1.83 1.89 1.89 1.75 1.77 1.83 1.71 1.45
1.06 1.33 1.45 1.33 1.05 0.86 0.88 0.85 0.81 0.82 0.80 0.76 0.78 0.78 0.70 0.65 0.66 0.69 0.63 0.62 0.67 0.71 0.70 0.68 0.69 0.75 0.77 0.87 0.98 1.04 1.15 1.22 1.38 1.55 1.68 1.69 1.73 1.77 1.68 1.66 1.79 1.78 1.54
1.21 1.37 1.42 1.29 1.10 0.82 0.75 0.74 0.70 0.73 0.78 0.71 0.73 0.72 0.62 0.49 0.47 0.47 0.45 0.45 0.49 0.55 0.56 0.59 0.65 0.65 0.67 0.69 0.70 0.75 0.81 0.89 0.99 1.07 1.20 1.40 1.58 1.64 1.64 1.69 1.76 1.79 1.65
0.87 0.90 1.01 1.02 0.94 0.81 0.74 0.80 0.84 0.83 0.75 0.68 0.63 0.59 0.52 0.44 0.43 0.41 0.38 0.40 0.45 0.47 0.49 0.54 0.58 0.58 0.64 0.66 0.66 0.66 0.68 0.77 0.85 0.86 0.88 0.98 1.20 1.36 1.50 1.58 1.61 1.67 1.66
0.64 0.58 0.69 0.81 0.76 0.69 0.73 0.81 0.95 0.95 0.86 0.74 0.63 0.58 0.54 0.50 0.47 0.42 0.41 0.41 0.48 0.59 0.62 0.61 0.64 0.62 0.64 0.64 0.65 0.68 0.70 0.72 0.77 0.80 0.82 0.88 0.97 1.14 1.23 1.34 1.45 1.53 1.65
0.51 0.46 0.44 0.45 0.44 0.46 0.50 0.62 0.89 1.07 1.04 0.94 0.80 0.70 0.62 0.55 0.49 0.44 0.43 0.42 0.45 0.51 0.54 0.63 0.71 0.79 0.83 0.82 0.78 0.77 0.75 0.70 0.72 0.79 0.86 0.88 0.88 1.00 1.21 1.34 1.41 1.45 1.56
0.33 0.28 0.25 0.24 0.26 0.30 0.37 0.47 0.75 0.95 0.96 0.95 0.83 0.70 0.58 0.47 0.44 0.47 0.49 0.46 0.42 0.44 0.45 0.53 0.62 0.72 0.81 0.86 0.86 0.72 0.61 0.62 0.67 0.68 0.69 0.77 0.84 0.87 1.02 1.19 1.42 1.43 1.55
0.27 0.26 0.22 0.19 0.15 0.15 0.19 0.29 0.49 0.65 0.72 0.78 0.74 0.59 0.52 0.46 0.41 0.42 0.49 0.49 0.39 0.38 0.40 0.44 0.42 0.45 0.50 0.66 0.66 0.55 0.45 0.50 0.60 0.68 0.70 0.70 0.71 0.74 0.78 0.82 1.07 1.25 1.37
0.29 0.31 0.30 0.26 0.22 0.19 0.18 0.20 0.27 0.37 0.44 0.48 0.49 0.39 0.37 0.45 0.45 0.46 0.45 0.38 0.32 0.34 0.36 0.32 0.28 0.30 0.34 0.39 0.38 0.44 0.45 0.48 0.52 0.61 0.70 0.75 0.73 0.78 0.87 0.84 0.87 0.96 1.03
0.32 0.29 0.26 0.24 0.21 0.17 0.16 0.17 0.18 0.22 0.25 0.24 0.21 0.17 0.24 0.34 0.35 0.32 0.29 0.24 0.24 0.29 0.37 0.32 0.30 0.33 0.30 0.32 0.37 0.40 0.43 0.56 0.62 0.61 0.62 0.73 0.79 0.85 1.00 0.99 1.06 1.00 0.89
0.14 0.11 0.09 0.09 0.08 0.08 0.07 0.07 0.05 0.06 0.06 0.06 0.06 0.07 0.08 0.09 0.09 0.08 0.09 0.12 0.17 0.21 0.20 0.24 0.39 0.39 0.35 0.43 0.41 0.35 0.42 0.55 0.62 0.58 0.61 0.73 0.83 0.97 1.08 1.13 1.16 1.05 0.95
0.03 0.03 0.05 0.06 0.05 0.05 0.05 0.04 0.04 0.04 0.04 0.04 0.04 0.05 0.04 0.06 0.05 0.05 0.05 0.06 0.08 0.12 0.12 0.16 0.29 0.36 0.37 0.37 0.28 0.28 0.41 0.53 0.61 0.62 0.64 0.85 0.86 0.94 1.00 1.06 1.18 1.20 1.06
0.02 0.03 0.04 0.05 0.04 0.04 0.04 0.03 0.03 0.04 0.05 0.05 0.05 0.04 0.04 0.06 0.08 0.09 0.07 0.05 0.04 0.05 0.08 0.13 0.16 0.16 0.17 0.17 0.18 0.25 0.31 0.38 0.50 0.58 0.63 0.60 0.72 0.75 0.85 0.97 1.05 1.26 1.14
0.03 0.04 0.04 0.04 0.05 0.05 0.04 0.04 0.04 0.05 0.06 0.06 0.05 0.04 0.04 0.05 0.06 0.12 0.11 0.08 0.07 0.05 0.06 0.09 0.12 0.10 0.09 0.08 0.11 0.14 0.18 0.25 0.32 0.41 0.52 0.52 0.61 0.66 0.73 0.75 0.93 1.11 1.08
0.02 0.03 0.04 0.05 0.05 0.06 0.07 0.05 0.06 0.06 0.07 0.07 0.06 0.06 0.05 0.06 0.06 0.07 0.10 0.09 0.07 0.06 0.07 0.07 0.10 0.10 0.11 0.10 0.11 0.12 0.15 0.20 0.23 0.26 0.41 0.49 0.56 0.55 0.56 0.68 0.86 0.92 0.97
0.02 0.01 0.02 0.04 0.05 0.05 0.07 0.08 0.07 0.09 0.09 0.08 0.07 0.07 0.07 0.07 0.05 0.05 0.07 0.08 0.08 0.07 0.07 0.08 0.11 0.14 0.15 0.11 0.10 0.15 0.19 0.21 0.22 0.25 0.38 0.50 0.57 0.56 0.56 0.63 0.76 0.82 0.94
0.02 0.01 0.01 0.02 0.03 0.04 0.06 0.07 0.08 0.10 0.10 0.09 0.10 0.09 0.09 0.08 0.08 0.07 0.07 0.07 0.09 0.10 0.09 0.11 0.14 0.13 0.12 0.12 0.14 0.17 0.21 0.24 0.25 0.34 0.51 0.64 0.66 0.65 0.62 0.66 0.76 0.74 0.72
0.01 0.02 0.01 0.02 0.02 0.02 0.03 0.04 0.05 0.07 0.09 0.10 0.10 0.09 0.11 0.13 0.13 0.11 0.09 0.08 0.09 0.12 0.12 0.12 0.13 0.13 0.12 0.13 0.16 0.20 0.23 0.26 0.35 0.52 0.70 0.81 0.89 0.88 0.81 0.77 0.76 0.69 0.68